Terminal Aerodrome Forecast
Issued by NWS State College, PA

Home | Current Version | Previous Version | Text Only | Print | Product List | Glossary On
Versions: 1 2 3 4 5 6 7 8 9 10 11 12 13 14 15 16 17 18 19 20 21 22 23 24 25 26 27 28 29 30 31 32 33 34
000
FTUS41 KCTP 190535
TAFIPT
TAF
KIPT 190535Z 1906/2006 VRB03KT 1/2SM FG VV002
     FM190900 VRB03KT 2SM BR BKN003
     FM191300 VRB03KT P6SM BKN015
     FM192300 26007KT P6SM SCT040=

USA.gov is the U.S. government's official web portal to all federal, state and local government web resources and services.